Theta_e
306 305 304 306 306 304 305 305 301 295 293 295 295 298 300 301 300 302 301 300 303 304 304 303 303 303 303 303 303 303 304 303 302 301 301 301 301 302
306 304 304 304 306 306 306 305 305 300 293 296 295 297 299 298 296 298 297 297 299 301 301 301 301 301 301 301 301 301 300 300 300 300 300 300 301 301
306 306 304 306 306 306 306 304 302 300 293 293 295 297 297 296 296 297 297 297 297 297 298 298 298 299 299 298 298 297 297 296 296 297 298 298 298 298
305 305 305 306 306 306 305 302 300 300 296 292 293 294 294 295 295 294 294 295 295 296 297 297 296 296 295 295 294 294 293 293 294 294 295 295 296 296
306 306 305 306 305 304 303 301 300 298 297 295 293 294 293 293 291 290 291 291 291 293 294 293 293 293 292 292 292 292 292 292 291 291 291 292 292 292
307 307 307 306 305 304 302 300 298 297 296 294 293 292 291 291 290 287 286 288 287 288 289 289 290 291 290 291 290 291 291 290 290 289 288 289 289 290
306 306 306 300 298 301 302 299 298 296 295 293 291 290 288 288 287 286 285 285 285 285 285 285 286 287 287 288 288 289 290 289 288 287 287 287 287 287
303 300 299 293 296 296 296 297 298 296 294 293 292 290 289 288 287 286 285 284 281 285 283 282 283 283 285 286 288 288 288 288 288 287 287 285 285 285
301 299 296 293 294 295 293 293 292 295 297 297 294 293 289 289 287 286 286 285 284 283 282 279 281 281 282 285 287 287 286 286 287 286 285 284 284 284
299 298 297 295 295 295 293 291 290 291 294 295 296 293 294 292 291 290 288 284 284 284 285 278 276 275 277 279 286 286 286 286 285 284 283 283 282 282
297 297 296 295 291 293 291 287 286 287 292 293 293 294 294 294 290 288 285 284 283 283 284 281 278 278 274 275 281 284 284 285 284 284 283 282 281 280
291 291 289 294 291 292 290 288 286 284 285 286 287 288 290 290 291 288 287 285 282 282 284 281 280 278 274 274 276 278 277 281 282 283 283 283 280 276
288 287 287 292 292 292 291 288 287 285 286 284 283 283 283 283 283 284 284 284 277 279 283 281 280 279 271 271 271 273 275 276 276 276 280 281 282 279
289 287 288 292 292 292 289 289 288 284 284 283 282 281 280 280 279 279 278 276 277 277 281 280 279 279 270 267 267 269 268 270 273 273 274 277 278 279
287 289 291 291 291 290 290 289 285 283 281 280 279 278 278 278 276 276 276 273 273 274 276 279 279 272 270 267 267 265 264 265 268 268 269 271 271 273
289 289 290 289 288 288 287 286 284 282 280 278 278 278 279 278 275 272 275 276 275 271 272 274 273 269 263 262 263 260 263 263 263 265 267 267 269 270
287 286 285 285 284 284 284 283 280 279 278 277 277 277 278 275 269 267 270 261 264 265 262 267 270 269 266 263 263 259 260 261 263 264 264 261 263 265
286 286 285 285 284 284 284 282 278 277 277 278 279 279 278 274 272 265 263 267 268 266 266 258 268 264 261 266 270 258 257 258 259 260 261 259 259 264
287 286 286 286 286 285 285 283 280 278 277 278 281 280 279 275 272 268 267 268 260 260 261 257 259 260 257 256 260 271 260 257 257 258 256 256 259 262
286 287 286 286 285 285 284 283 281 278 279 280 280 276 276 275 272 269 268 267 267 260 258 256 260 261 263 264 260 263 272 258 257 256 258 257 261 271
286 287 287 286 286 285 284 283 281 280 279 281 280 276 276 276 273 270 269 268 267 260 264 261 262 263 263 263 262 260 261 273 265 259 257 256 256 256
287 287 287 286 285 283 282 281 280 279 280 282 278 276 276 276 273 271 270 269 265 262 261 262 261 263 263 262 260 260 261 259 266 273 272 267 258 256
287 287 286 286 285 284 282 280 280 280 282 281 277 276 275 274 274 274 272 272 267 264 265 263 263 263 261 263 262 259 256 257 259 260 260 272 272 271
Wind_Speed
6 7 5 6 4 3 7 7 9 5 3 4 3 6 7 9 10 12 12 18 18 17 17 18 17 17 15 14 13 13 13 14 16 16 16 15 16 15
5 8 6 5 6 5 3 3 5 10 5 2 4 3 8 9 11 12 12 15 16 18 18 18 17 18 17 14 14 16 16 17 17 17 17 17 17 20
6 8 9 8 5 5 4 4 7 8 9 4 2 4 8 11 10 10 9 9 9 18 18 18 18 17 17 18 18 17 19 17 17 17 17 19 20 20
8 9 9 6 7 5 4 5 7 6 9 13 3 3 6 9 10 11 8 8 10 19 21 22 21 21 19 19 20 18 18 18 19 19 20 19 20 21
9 10 9 9 6 5 6 7 6 7 8 10 7 2 3 6 9 9 9 10 9 18 22 23 23 20 20 20 19 18 18 18 19 19 19 19 19 20
6 8 7 7 8 8 6 8 7 9 10 9 8 6 3 4 6 8 8 5 7 8 15 16 16 19 20 20 19 17 17 19 19 17 18 19 19 20
6 7 6 6 10 6 8 8 10 8 8 9 7 4 4 6 8 4 8 7 7 5 7 6 6 6 8 12 12 15 16 16 15 17 19 19 19 19
7 5 6 9 9 9 11 8 7 12 9 7 6 9 8 6 8 8 10 7 5 0 6 7 4 6 4 5 15 17 15 13 14 15 16 18 19 19
7 7 5 5 7 8 12 13 10 8 7 6 12 10 10 9 11 10 7 2 4 8 9 7 4 5 5 7 15 16 17 16 15 15 16 16 17 19
6 7 8 7 8 10 10 9 7 6 3 4 8 9 8 13 11 7 7 8 10 4 3 5 2 2 3 5 13 14 16 17 17 16 15 15 17 16
5 5 7 8 11 16 12 11 9 8 13 14 13 14 17 17 14 11 8 11 4 2 1 5 4 4 3 4 5 12 13 15 16 16 17 17 15 14
4 5 7 9 12 13 12 11 10 6 8 10 9 12 12 13 11 5 10 10 5 2 4 5 8 5 3 2 3 4 4 12 13 15 16 17 15 4
4 3 3 14 13 12 12 8 7 10 13 10 8 7 6 6 5 5 4 5 4 2 5 5 6 5 3 3 1 3 4 4 4 6 13 16 17 11
6 4 5 15 14 14 9 17 21 13 7 7 7 6 6 5 4 5 6 6 4 3 6 5 5 4 4 2 3 1 3 3 4 4 5 9 13 17
4 7 13 14 15 9 18 20 14 7 8 8 6 3 3 5 7 7 8 8 9 9 7 4 3 4 4 3 4 3 3 3 3 3 3 5 4 4
12 9 9 10 9 10 11 10 5 6 7 8 7 6 6 5 4 2 5 6 6 4 9 8 7 5 4 4 3 3 1 3 2 2 2 2 3 4
11 8 7 6 7 6 6 6 5 6 7 7 8 8 7 6 2 2 5 2 4 4 2 5 11 13 8 5 5 3 1 2 1 1 3 3 3 4
6 7 8 8 9 9 9 8 4 6 6 8 8 8 8 7 7 2 3 4 9 5 7 2 8 6 5 8 10 2 2 1 2 1 2 3 3 3
3 7 9 10 9 9 8 9 9 6 7 7 9 9 8 7 7 5 6 7 3 3 4 3 2 4 4 3 4 4 4 1 0 2 1 2 3 3
4 7 9 9 9 9 9 8 7 8 8 8 8 7 8 9 8 7 7 8 9 4 2 1 2 3 5 8 6 2 1 4 3 1 1 2 3 4
8 9 8 8 9 8 8 7 9 9 9 9 9 8 9 9 7 7 7 9 8 3 5 2 2 3 6 4 5 1 4 6 5 4 3 3 0 4
8 9 9 10 9 9 9 9 9 9 9 9 8 8 8 8 9 9 9 10 6 3 3 4 2 2 3 3 4 5 2 3 5 9 8 5 5 1
6 7 7 8 9 11 10 10 10 9 10 10 9 9 10 9 8 8 8 8 8 6 7 4 2 2 2 3 5 4 3 0 1 2 3 7 6 0
Wind_Direction
93 105 114 117 110 89 134 127 128 121 88 27 70 12 71 75 73 81 82 79 82 86 85 83 80 73 62 63 53 45 40 34 34 30 27 27 27 23
100 107 115 95 102 94 81 48 97 120 111 66 59 58 86 82 75 82 79 76 78 81 80 78 75 71 63 60 56 50 48 47 47 46 41 38 33 32
112 113 113 112 103 92 84 82 93 102 114 77 78 85 88 99 90 83 78 78 75 80 81 83 80 76 71 64 58 55 50 45 42 44 46 43 43 43
119 114 113 113 105 104 102 101 102 118 125 127 121 100 88 91 90 85 84 80 82 80 81 78 74 69 65 62 58 55 56 60 58 51 48 51 49 46
132 128 130 135 123 121 109 100 99 101 117 134 125 98 99 107 99 85 83 82 74 75 72 70 68 68 67 64 62 61 63 64 61 57 56 51 51 48
121 122 130 141 140 132 120 114 120 114 122 127 126 123 111 115 104 112 94 81 88 72 67 67 69 66 68 61 58 58 70 67 64 63 59 54 49 48
122 124 118 117 123 138 139 140 133 124 133 135 136 124 130 149 143 127 116 106 67 71 74 62 66 58 54 56 62 66 64 69 68 65 60 57 53 49
132 109 121 117 108 117 107 101 134 145 148 147 157 159 152 133 136 142 135 137 112 56 82 65 48 57 50 51 68 64 63 69 71 69 69 62 55 49
134 125 107 97 108 108 92 87 75 77 151 153 158 163 155 156 148 148 152 102 114 134 118 73 20 59 7 68 70 69 69 58 56 62 60 56 55 52
127 135 133 135 136 127 110 91 71 56 115 143 162 154 154 151 156 154 134 102 107 149 141 112 37 32 3 2 74 68 69 66 68 63 61 62 58 50
131 129 141 141 147 136 124 114 99 79 65 90 107 120 134 144 138 126 133 135 131 149 158 111 171 111 39 1 9 51 59 64 59 60 66 62 59 55
120 129 144 144 148 147 134 138 128 135 118 97 88 82 101 117 126 127 153 153 130 127 188 109 152 147 135 2 5 24 19 49 51 57 57 63 62 38
143 145 135 145 147 144 141 148 141 141 123 110 103 96 88 85 78 83 109 146 126 113 168 108 165 178 99 123 23 0 27 31 45 37 34 53 52 69
171 157 149 153 150 147 132 133 135 124 119 113 115 113 113 105 85 82 83 79 51 127 146 121 149 161 126 119 146 335 7 15 29 40 34 37 44 44
142 151 147 146 140 126 138 139 136 133 131 129 132 114 103 111 111 96 90 90 72 44 27 6 115 93 106 129 146 169 97 354 8 34 19 28 15 7
125 129 134 124 114 123 135 140 137 143 145 139 134 128 127 130 135 114 115 104 88 54 28 28 68 100 85 65 108 109 71 137 358 10 27 2 354 9
130 128 132 135 138 142 145 138 130 135 136 135 144 147 146 140 105 79 114 72 103 142 82 54 75 81 74 116 77 50 82 60 348 203 61 354 330 345
134 159 165 166 167 166 166 162 157 149 148 144 149 157 155 154 152 134 92 115 132 132 130 175 125 98 38 35 70 107 47 122 306 9 62 96 331 316
176 175 177 175 176 169 174 174 168 163 145 152 161 167 159 152 150 136 128 131 112 133 148 153 116 106 91 115 291 71 139 210 117 25 84 157 190 275
183 187 181 176 173 171 171 168 153 154 163 160 158 158 157 159 151 148 149 145 148 155 127 17 97 140 141 168 152 232 38 130 127 167 290 300 258 341
196 191 180 174 173 170 169 169 165 169 166 167 169 164 163 162 156 152 144 150 140 142 150 144 176 126 109 92 72 20 310 56 143 157 167 106 322 338
197 199 188 172 173 169 167 163 158 160 168 172 169 166 165 168 162 158 160 158 158 134 107 113 128 104 68 97 132 140 163 330 359 65 95 141 155 200
197 199 196 191 175 169 168 168 173 174 177 174 171 169 167 166 159 158 156 156 142 129 148 131 111 68 73 106 119 132 125 129 5 15 331 10 26 345